TimeCST,TemperatureF,Dew PointF,Humidity,Sea Level PressureIn,VisibilityMPH,Wind Direction,Wind SpeedMPH,Gust SpeedMPH,PrecipitationIn,Events,Conditions,WindDirDegrees,DateUTC
12:43 AM,53.6,39.2,58,30.34,10.0,NE,4.6,-,N/A,,Scattered Clouds,50,2012-11-16 06:43:00
1:44 AM,48.2,37.4,66,30.34,10.0,Calm,Calm,-,N/A,,Scattered Clouds,0,2012-11-16 07:44:00
2:44 AM,46.4,37.4,71,30.33,10.0,Calm,Calm,-,N/A,,Scattered Clouds,0,2012-11-16 08:44:00
3:44 AM,44.6,39.2,81,30.32,10.0,SSE,4.6,-,N/A,,Scattered Clouds,150,2012-11-16 09:44:00
4:48 AM,44.6,37.4,76,30.32,10.0,Calm,Calm,-,N/A,,Scattered Clouds,0,2012-11-16 10:48:00
6:17 AM,39.2,33.8,81,30.34,10.0,Calm,Calm,-,N/A,,Partly Cloudy,0,2012-11-16 12:17:00
6:45 AM,42.8,35.6,76,30.34,10.0,Calm,Calm,-,N/A,,Scattered Clouds,0,2012-11-16 12:45:00
7:41 AM,46.4,39.2,76,30.36,10.0,Calm,Calm,-,N/A,,Scattered Clouds,0,2012-11-16 13:41:00
8:42 AM,51.8,42.8,71,30.37,10.0,Calm,Calm,-,N/A,,Scattered Clouds,0,2012-11-16 14:42:00
9:43 AM,57.2,44.6,63,30.39,10.0,NNW,3.5,-,N/A,,Partly Cloudy,340,2012-11-16 15:43:00
11:26 AM,68.0,46.4,46,30.37,10.0,NNE,6.9,-,N/A,,Scattered Clouds,20,2012-11-16 17:26:00
11:40 AM,69.8,48.2,46,30.36,10.0,North,8.1,-,N/A,,Scattered Clouds,10,2012-11-16 17:40:00
12:41 PM,73.4,44.6,36,30.33,8.0,ENE,11.5,-,N/A,,Mostly Cloudy,60,2012-11-16 18:41:00
1:43 PM,73.4,42.8,33,30.30,9.0,ENE,6.9,-,N/A,,Mostly Cloudy,60,2012-11-16 19:43:00
2:43 PM,75.2,42.8,31,30.28,10.0,ENE,6.9,-,N/A,,Scattered Clouds,60,2012-11-16 20:43:00
3:50 PM,75.2,39.2,27,30.28,10.0,NNE,6.9,-,N/A,,Mostly Cloudy,20,2012-11-16 21:50:00
4:41 PM,73.4,39.2,29,30.28,10.0,NE,5.8,-,N/A,,Mostly Cloudy,40,2012-11-16 22:41:00
5:41 PM,69.8,39.2,33,30.28,10.0,ENE,8.1,-,N/A,,Mostly Cloudy,60,2012-11-16 23:41:00
6:46 PM,66.2,37.4,35,30.29,10.0,ENE,8.1,-,N/A,,Mostly Cloudy,70,2012-11-17 00:46:00
7:41 PM,62.6,37.4,39,30.31,10.0,East,9.2,-,N/A,,Mostly Cloudy,80,2012-11-17 01:41:00
8:41 PM,62.6,37.4,39,30.32,10.0,East,11.5,-,N/A,,Clear,100,2012-11-17 02:41:00
9:52 PM,60.8,42.8,52,30.33,10.0,SE,9.2,-,N/A,,Clear,130,2012-11-17 03:52:00
11:47 PM,55.4,41.0,58,30.35,10.0,West,4.6,-,N/A,,Clear,270,2012-11-17 05:47:00